Milwaukee, WI

11:21 PM CST on December 11, 2019 (GMT -0600)
Gen Mitchell International

Weather History for KMKE - September, 2019

Change the Weather History Date:

Thursday, September 26, 2019

  Actual Average Record
Temperature  
Mean Temperature 64 °F 59 °F  
Max Temperature 72 °F 67 °F 91 °F (2017)
Min Temperature 55 °F 50 °F 34 °F (1928)
Degree Days  
Heating Degree Days 2 7  
Month to date heating degree days 9 93  
Since 1 July heating degree days 11 119  
Cooling Degree Days 0 1  
Month to date cooling degree days 109 66  
Year to date cooling degree days 715 631  
Growing Degree Days 14 (Base 50)    
Moisture  
Dew Point 43 °F    
Average Humidity 48    
Maximum Humidity 67    
Minimum Humidity 31    
Precipitation  
Precipitation 0.00 in 0.10 in 1.33 in (1996)
Month to date precipitation 5.60 2.78  
Year to date precipitation 34.01 26.96  
Snow  
Snow 0.00 in 0.00 in T in (1942)
Month to date snowfall 0.0 0.0  
Since 1 July snowfall 0.0 0.0  
Since 1 September snowfall 0.0 0.0  
Snow Depth 0.00 in    
Sea Level Pressure  
Sea Level Pressure 29.89 in    
Wind  
Wind Speed 9 mph ()    
Max Wind Speed 22 mph    
Max Gust Speed 33 mph    
Visibility 10.0 miles    
Events      
T = Trace of Precipitation, MM = Missing Value Source: Averaged Metar Reports

Daily Weather History Graph

Daily Weather History Graph

Search for Another Location

Airport or City:

Astronomy

Sep. 26, 2019 Rise Set
Actual Time 6:43 AM CDT 6:42 PM CDT
Civil Twilight 6:14 AM CDT 7:10 PM CDT
Nautical Twilight 5:41 AM CDT 7:43 PM CDT
Astronomical Twilight 5:08 AM CDT 8:16 PM CDT
Moon 3:43 AM CDT (9/26) 6:00 PM CDT (9/26)
Length of Visible Light 12h 55m
Length of Day
11h 59m
Waning Crescent, 6% of the Moon is Illuminated
Sep 26
Waning Crescent
Sep 28
New
Oct 5
First Quarter
Oct 13
Full
Oct 21
Last Quarter

Hourly Weather History & Observations

Time (CDT) Temp. Dew Point Humidity Pressure Visibility Wind Dir Wind Speed Gust Speed Precip Events Conditions
12:52 AM 64.0 °F 46.9 °F 54% 29.82 in 10.0 mi West 10.4 mph 21.9 mph N/A   Overcast
1:52 AM 64.0 °F 45.0 °F 50% 29.81 in 10.0 mi WNW 12.7 mph 23.0 mph N/A   Mostly Cloudy
2:52 AM 63.0 °F 44.1 °F 50% 29.81 in 10.0 mi WNW 13.8 mph 24.2 mph N/A   Mostly Cloudy
3:52 AM 61.0 °F 44.1 °F 54% 29.83 in 10.0 mi WNW 12.7 mph 20.7 mph N/A   Scattered Clouds
4:52 AM 59.0 °F 44.1 °F 58% 29.86 in 10.0 mi West 5.8 mph - N/A   Partly Cloudy
5:52 AM 55.9 °F 45.0 °F 67% 29.89 in 10.0 mi West 5.8 mph - N/A   Clear
6:52 AM 55.9 °F 44.1 °F 64% 29.91 in 10.0 mi West 6.9 mph - N/A   Partly Cloudy
7:52 AM 57.0 °F 45.0 °F 64% 29.92 in 10.0 mi West 8.1 mph - N/A   Partly Cloudy
8:52 AM 60.1 °F 45.0 °F 57% 29.94 in 10.0 mi West 12.7 mph - N/A   Partly Cloudy
9:52 AM 63.0 °F 44.1 °F 50% 29.93 in 10.0 mi West 9.2 mph - N/A   Partly Cloudy
10:52 AM 66.0 °F 43.0 °F 43% 29.95 in 10.0 mi West 11.5 mph 21.9 mph N/A   Partly Cloudy
11:52 AM 68.0 °F 42.1 °F 39% 29.95 in 10.0 mi West 12.7 mph 20.7 mph N/A   Clear
12:52 PM 69.1 °F 37.9 °F 32% 29.95 in 10.0 mi West 18.4 mph 28.8 mph N/A   Clear
1:52 PM 70.0 °F 39.0 °F 32% 29.93 in 10.0 mi West 15.0 mph 26.5 mph N/A   Clear
2:52 PM 71.1 °F 39.9 °F 32% 29.91 in 10.0 mi West 16.1 mph 23.0 mph N/A   Scattered Clouds
3:52 PM 72.0 °F 39.9 °F 31% 29.89 in 10.0 mi West 12.7 mph 18.4 mph N/A   Scattered Clouds
4:52 PM 71.1 °F 39.9 °F 32% 29.89 in 10.0 mi West 6.9 mph - N/A   Scattered Clouds
5:52 PM 71.1 °F 39.0 °F 31% 29.89 in 10.0 mi WSW 9.2 mph - N/A   Scattered Clouds
6:52 PM 66.9 °F 41.0 °F 39% 29.89 in 10.0 mi SW 5.8 mph - N/A   Scattered Clouds
7:52 PM 64.0 °F 44.1 °F 48% 29.91 in 10.0 mi SW 5.8 mph - N/A   Partly Cloudy
8:52 PM 60.1 °F 45.0 °F 57% 29.90 in 10.0 mi South 5.8 mph - N/A   Partly Cloudy
9:52 PM 62.1 °F 46.0 °F 56% 29.89 in 10.0 mi SSW 4.6 mph - N/A   Mostly Cloudy
10:52 PM 62.1 °F 46.9 °F 58% 29.88 in 10.0 mi SSW 5.8 mph - N/A   Overcast
11:52 PM 62.1 °F 48.0 °F 60% 29.87 in 10.0 mi SSW 8.1 mph - N/A   Overcast